Location: Mountain View
(37.3861°N, 122.0839°W)
Time: 01:46:19
(UTC-07:00)

Envisat - Visible Passes

Search period start: 27 June 2017 00:00
Search period end: 07 July 2017 00:00
Orbit: 764 x 766 km, 98.2° (Epoch: 26 June)

Date Brightness Start Highest point End Pass type
(mag) Time Alt. Az. Time Alt. Az. Time Alt. Az.
27 Jun 3.1 21:13:17 10° S 21:18:22 81° WSW 21:23:29 10° NNW visible
28 Jun 5.3 22:17:24 10° SW 22:20:57 19° W 22:24:32 10° NW visible
29 Jun 4.0 21:39:13 10° S 21:44:01 44° W 21:48:53 10° NNW visible
30 Jun 3.0 21:02:14 10° SSE 21:07:18 80° ENE 21:12:24 10° N visible
01 Jul 5.0 22:05:42 10° SSW 22:09:47 24° W 22:13:54 10° NW visible
02 Jul 3.6 21:27:56 10° S 21:32:55 57° W 21:37:55 10° NNW visible
03 Jul 5.6 22:33:15 10° WSW 22:35:38 13° W 22:38:01 10° WNW visible
04 Jul 4.6 21:54:10 10° SSW 21:58:38 31° W 22:03:07 10° NW visible
05 Jul 3.2 21:16:46 10° S 21:21:49 73° WSW 21:26:54 10° NNW visible
06 Jul 5.4 22:21:09 10° SW 22:24:26 17° W 22:27:45 10° NW visible
